Precipitable_Water
0.78 0.78 0.91 0.97 0.99 1.02 0.95 0.88 0.80 0.79 0.93 1.07 1.12 1.26 1.19 1.04 0.89 0.72 0.47 0.47 0.52 0.59 0.53 0.44 0.40 0.37 0.40 0.37 0.38 0.37 0.16 0.12 0.15 0.17 0.19 0.29 0.24 0.31 0.34 0.28 0.33 0.39 0.42 0.47 0.54
0.77 0.75 0.74 0.80 0.93 0.96 1.00 0.97 0.89 0.76 0.82 0.98 1.04 1.16 1.23 1.09 0.81 0.62 0.64 0.67 0.66 0.58 0.40 0.36 0.31 0.32 0.26 0.30 0.32 0.25 0.15 0.14 0.25 0.27 0.23 0.26 0.25 0.25 0.24 0.22 0.23 0.26 0.34 0.43 0.51
0.75 0.76 0.76 0.74 0.79 0.90 0.94 0.97 0.94 0.86 0.75 0.87 1.04 1.13 1.19 1.09 0.73 0.61 0.75 0.76 0.74 0.57 0.53 0.45 0.41 0.34 0.25 0.28 0.27 0.26 0.16 0.24 0.25 0.28 0.30 0.26 0.24 0.27 0.23 0.18 0.21 0.22 0.26 0.32 0.38
0.68 0.69 0.74 0.72 0.77 0.86 0.91 0.92 0.92 0.88 0.82 0.79 1.06 1.16 1.12 0.95 0.49 0.68 0.80 0.87 0.76 0.53 0.50 0.43 0.39 0.29 0.26 0.23 0.30 0.20 0.28 0.27 0.28 0.29 0.27 0.23 0.26 0.22 0.22 0.21 0.27 0.28 0.29 0.29 0.29
0.65 0.66 0.70 0.73 0.76 0.83 0.88 0.87 0.87 0.89 0.74 0.82 0.98 1.12 0.97 0.78 0.71 0.83 0.85 0.87 0.71 0.51 0.40 0.38 0.34 0.32 0.23 0.25 0.26 0.23 0.25 0.27 0.28 0.27 0.25 0.25 0.21 0.21 0.21 0.25 0.25 0.25 0.26 0.26 0.27
0.64 0.65 0.65 0.68 0.75 0.78 0.86 0.86 0.86 0.86 0.77 0.82 1.04 1.16 0.90 0.63 0.99 1.03 0.82 0.72 0.59 0.49 0.45 0.43 0.37 0.36 0.27 0.25 0.22 0.26 0.25 0.24 0.25 0.22 0.23 0.20 0.19 0.22 0.22 0.24 0.22 0.22 0.21 0.22 0.23
0.66 0.66 0.65 0.66 0.73 0.76 0.79 0.82 0.80 0.80 0.78 0.82 1.07 0.97 0.80 0.74 1.03 0.98 0.85 0.72 0.65 0.58 0.48 0.48 0.43 0.33 0.31 0.24 0.30 0.27 0.20 0.22 0.21 0.22 0.22 0.25 0.17 0.18 0.24 0.25 0.23 0.26 0.28 0.29 0.30
0.67 0.66 0.69 0.69 0.70 0.72 0.73 0.72 0.75 0.74 0.75 0.75 1.01 0.94 0.69 1.00 1.04 0.89 0.83 0.70 0.67 0.60 0.51 0.50 0.47 0.37 0.33 0.36 0.30 0.24 0.23 0.15 0.20 0.24 0.27 0.26 0.14 0.20 0.27 0.29 0.27 0.29 0.30 0.32 0.35
0.69 0.62 0.66 0.73 0.73 0.72 0.67 0.65 0.74 0.73 0.80 0.74 0.86 0.83 0.62 1.01 0.88 0.87 0.80 0.64 0.60 0.57 0.54 0.52 0.45 0.38 0.38 0.27 0.21 0.23 0.16 0.17 0.19 0.30 0.30 0.29 0.19 0.27 0.34 0.31 0.29 0.31 0.34 0.36 0.38
0.71 0.63 0.66 0.71 0.71 0.70 0.60 0.63 0.82 0.83 0.80 0.87 0.87 0.66 0.73 0.69 0.80 0.77 0.75 0.66 0.54 0.51 0.45 0.44 0.41 0.33 0.31 0.24 0.15 0.17 0.18 0.21 0.22 0.28 0.30 0.28 0.25 0.30 0.36 0.35 0.33 0.35 0.37 0.38 0.37
0.74 0.65 0.65 0.62 0.67 0.63 0.54 0.64 0.61 0.53 0.64 0.61 0.63 0.61 0.68 0.80 0.78 0.68 0.68 0.59 0.54 0.47 0.34 0.40 0.28 0.21 0.25 0.26 0.26 0.25 0.23 0.22 0.27 0.34 0.31 0.30 0.26 0.26 0.33 0.37 0.37 0.39 0.38 0.41 0.43
0.72 0.64 0.60 0.59 0.62 0.62 0.58 0.55 0.58 0.65 0.50 0.68 0.68 0.67 0.71 0.71 0.56 0.58 0.68 0.50 0.45 0.34 0.37 0.30 0.23 0.29 0.32 0.31 0.28 0.27 0.24 0.24 0.31 0.36 0.33 0.31 0.26 0.32 0.38 0.40 0.45 0.48 0.49 0.50 0.57
0.67 0.60 0.58 0.57 0.66 0.59 0.59 0.63 0.80 0.81 0.49 0.55 0.66 0.63 0.65 0.69 0.56 0.55 0.54 0.50 0.40 0.32 0.30 0.23 0.28 0.34 0.30 0.29 0.27 0.28 0.25 0.27 0.28 0.35 0.39 0.35 0.25 0.31 0.38 0.48 0.51 0.53 0.60 0.64 0.64
0.60 0.58 0.52 0.60 0.57 0.61 0.59 0.78 0.84 0.82 0.37 0.41 0.50 0.57 0.61 0.55 0.45 0.58 0.61 0.50 0.40 0.30 0.32 0.29 0.35 0.31 0.30 0.28 0.30 0.23 0.36 0.36 0.35 0.34 0.27 0.41 0.22 0.30 0.37 0.38 0.45 0.53 0.58 0.66 0.67
0.54 0.52 0.57 0.62 0.56 0.54 0.70 0.83 0.86 0.70 0.20 0.44 0.49 0.67 0.61 0.54 0.50 0.51 0.63 0.48 0.34 0.35 0.34 0.28 0.31 0.31 0.29 0.30 0.36 0.30 0.40 0.39 0.39 0.35 0.36 0.35 0.30 0.27 0.39 0.33 0.40 0.50 0.57 0.63 0.72
0.53 0.54 0.53 0.56 0.62 0.72 0.83 0.83 0.69 0.30 0.20 0.37 0.49 0.48 0.48 0.51 0.49 0.49 0.46 0.51 0.48 0.37 0.37 0.34 0.44 0.40 0.36 0.41 0.41 0.45 0.42 0.41 0.41 0.37 0.26 0.32 0.32 0.27 0.32 0.39 0.43 0.50 0.56 0.63 0.66
0.59 0.62 0.60 0.66 0.56 0.77 0.76 0.56 0.29 0.22 0.41 0.35 0.39 0.46 0.44 0.38 0.36 0.39 0.36 0.33 0.30 0.25 0.25 0.33 0.36 0.42 0.45 0.39 0.46 0.46 0.40 0.26 0.23 0.25 0.24 0.38 0.32 0.31 0.43 0.47 0.49 0.49 0.52 0.58 0.64
0.61 0.63 0.64 0.66 0.71 0.69 0.55 0.34 0.21 0.32 0.34 0.43 0.42 0.41 0.33 0.36 0.35 0.36 0.34 0.30 0.39 0.37 0.30 0.25 0.23 0.41 0.50 0.46 0.44 0.46 0.43 0.31 0.21 0.23 0.27 0.41 0.30 0.37 0.52 0.56 0.56 0.56 0.56 0.60 0.65
0.53 0.50 0.51 0.58 0.65 0.62 0.41 0.24 0.27 0.33 0.39 0.36 0.37 0.29 0.29 0.35 0.34 0.34 0.34 0.35 0.41 0.40 0.31 0.30 0.32 0.49 0.54 0.57 0.55 0.47 0.39 0.50 0.36 0.38 0.31 0.34 0.42 0.51 0.57 0.55 0.56 0.58 0.60 0.64 0.70
0.46 0.46 0.48 0.62 0.65 0.49 0.33 0.29 0.34 0.41 0.39 0.38 0.25 0.29 0.24 0.28 0.29 0.34 0.35 0.43 0.44 0.51 0.53 0.44 0.33 0.46 0.52 0.58 0.57 0.51 0.56 0.37 0.39 0.26 0.24 0.32 0.34 0.37 0.47 0.51 0.56 0.59 0.61 0.66 0.70
0.48 0.38 0.52 0.63 0.59 0.39 0.25 0.30 0.36 0.43 0.43 0.35 0.29 0.26 0.27 0.29 0.34 0.35 0.37 0.45 0.51 0.52 0.56 0.51 0.43 0.38 0.47 0.41 0.37 0.41 0.38 0.43 0.44 0.38 0.28 0.26 0.33 0.53 0.52 0.56 0.56 0.59 0.63 0.66 0.70
0.48 0.34 0.58 0.63 0.34 0.37 0.31 0.37 0.44 0.40 0.43 0.38 0.36 0.35 0.35 0.39 0.37 0.39 0.39 0.45 0.56 0.57 0.46 0.51 0.42 0.30 0.32 0.43 0.46 0.42 0.38 0.39 0.32 0.30 0.35 0.34 0.35 0.60 0.60 0.62 0.62 0.61 0.65 0.69 0.72
0.38 0.42 0.59 0.55 0.27 0.30 0.37 0.37 0.41 0.39 0.39 0.41 0.40 0.45 0.48 0.42 0.36 0.42 0.43 0.51 0.55 0.52 0.45 0.47 0.36 0.26 0.26 0.30 0.34 0.31 0.35 0.36 0.35 0.35 0.29 0.28 0.33 0.58 0.61 0.60 0.63 0.63 0.65 0.66 0.66
0.37 0.28 0.41 0.47 0.45 0.36 0.32 0.33 0.35 0.47 0.46 0.48 0.46 0.47 0.44 0.40 0.44 0.37 0.37 0.43 0.48 0.47 0.48 0.45 0.33 0.26 0.18 0.22 0.27 0.22 0.26 0.31 0.29 0.22 0.22 0.24 0.30 0.41 0.49 0.52 0.55 0.55 0.56 0.56 0.56
0.40 0.35 0.41 0.30 0.34 0.37 0.39 0.39 0.37 0.37 0.47 0.47 0.41 0.41 0.39 0.34 0.34 0.31 0.34 0.35 0.40 0.40 0.39 0.34 0.21 0.24 0.24 0.25 0.24 0.23 0.21 0.24 0.22 0.23 0.18 0.22 0.24 0.31 0.37 0.39 0.43 0.44 0.43 0.43 0.44
0.36 0.37 0.42 0.38 0.39 0.37 0.38 0.36 0.36 0.39 0.39 0.36 0.34 0.36 0.36 0.31 0.31 0.27 0.30 0.28 0.26 0.32 0.31 0.33 0.20 0.23 0.18 0.22 0.22 0.19 0.20 0.21 0.23 0.23 0.22 0.23 0.22 0.33 0.36 0.38 0.37 0.38 0.39 0.39 0.41
0.48 0.50 0.39 0.33 0.32 0.30 0.32 0.32 0.32 0.36 0.38 0.39 0.37 0.32 0.28 0.32 0.36 0.36 0.36 0.34 0.31 0.27 0.25 0.25 0.21 0.17 0.11 0.17 0.17 0.12 0.15 0.18 0.20 0.23 0.21 0.16 0.23 0.31 0.31 0.32 0.34 0.36 0.38 0.38 0.40
Wind_Speed
35 36 36 37 38 39 38 38 37 40 40 36 34 26 32 29 27 25 25 24 23 22 21 19 17 16 16 15 15 15 14 15 16 16 17 17 17 19 20 22 24 27 28 29 30
35 34 35 36 36 38 38 38 36 36 41 39 37 33 32 30 28 27 26 25 24 22 21 20 19 18 18 17 17 16 16 18 17 18 19 21 21 22 23 24 25 28 30 32 32
35 35 35 35 36 35 37 36 37 36 36 39 36 34 31 28 27 28 27 26 24 23 22 21 20 19 18 18 19 19 20 20 21 22 22 23 25 24 26 26 27 27 29 32 34
34 34 35 34 33 33 32 34 35 35 35 36 35 34 33 28 26 25 27 26 24 23 22 21 20 19 19 19 20 20 21 21 23 24 26 27 27 27 29 30 31 32 32 33 34
29 30 31 31 29 29 31 29 31 35 33 34 35 33 33 26 27 23 24 24 23 22 21 21 20 20 19 20 21 21 22 24 26 27 29 30 31 31 33 34 34 34 34 35 36
25 24 24 24 26 25 26 28 27 32 32 33 34 34 30 29 24 24 23 22 21 21 20 19 20 19 19 20 21 22 24 27 27 30 31 33 34 31 30 35 38 38 38 38 39
20 20 19 18 19 22 22 23 22 29 30 32 28 33 27 26 23 23 23 22 20 20 18 18 18 18 19 19 21 23 25 27 27 27 29 30 32 31 32 34 35 36 37 39 40
19 19 17 14 14 17 19 20 20 25 31 34 31 27 23 25 26 23 21 20 19 18 17 16 16 17 18 19 20 21 22 22 25 26 27 26 32 35 34 33 36 40 41 41 43
17 15 12 10 10 12 13 15 13 19 29 33 30 26 25 21 22 22 21 19 17 16 15 16 16 16 17 17 18 19 21 22 24 23 26 26 32 29 33 38 41 41 40 40 41
12 10 8 6 5 6 8 10 8 18 24 29 26 22 21 21 21 19 18 18 16 15 14 14 14 14 15 15 17 17 18 20 21 22 25 29 36 37 36 37 40 39 38 37 37
6 4 5 3 3 3 6 12 13 18 22 20 24 20 24 22 18 17 16 14 13 12 12 12 12 14 15 14 13 13 16 19 22 25 26 27 32 35 35 35 33 32 31 32 33
2 1 3 1 4 6 9 13 17 20 20 16 21 21 21 20 16 14 14 11 11 11 10 9 10 11 10 11 12 13 17 20 21 20 21 24 29 27 23 21 20 20 20 21 23
5 4 4 6 9 8 13 16 22 23 21 18 19 17 17 15 14 15 13 10 10 9 9 8 7 6 8 9 11 13 16 17 18 19 18 18 18 17 15 13 13 13 12 12 12
10 8 10 12 11 13 15 23 24 21 18 15 15 13 17 16 12 13 11 9 8 9 8 8 8 8 9 10 11 14 12 15 16 15 14 13 15 14 12 9 8 8 9 9 8
15 18 17 16 16 15 19 19 18 16 15 12 13 14 14 12 16 10 9 6 7 6 5 6 6 6 8 10 9 10 9 13 16 18 16 12 11 11 10 8 8 6 6 5 5
24 21 18 20 20 19 17 16 16 13 13 14 14 16 15 12 11 11 8 5 5 4 4 7 6 6 7 7 8 9 13 15 14 10 8 6 6 8 6 9 9 5 5 3 3
28 26 23 20 17 15 14 14 15 15 14 16 17 15 13 12 10 9 7 5 5 3 2 3 4 3 3 4 4 6 7 7 5 4 5 4 3 5 7 8 6 3 2 2 2
27 25 24 21 18 15 13 15 18 14 17 18 16 13 12 11 10 8 7 4 4 3 2 1 0 4 3 2 3 2 3 3 3 4 6 2 3 5 6 5 4 3 3 4 5
22 21 20 17 15 15 17 19 17 16 17 16 14 12 10 9 9 6 5 4 4 6 5 4 2 3 2 1 3 3 3 3 4 4 4 3 4 4 6 5 5 5 4 3 3
18 17 18 19 17 18 21 23 19 17 16 12 10 10 9 8 8 7 5 5 6 8 7 5 2 2 3 4 2 4 5 2 3 4 4 4 5 7 9 5 5 4 4 5 6
22 20 18 19 21 22 22 19 18 15 13 11 11 11 10 10 9 6 8 7 7 7 7 5 4 3 4 3 4 4 5 4 4 3 4 5 6 10 10 8 9 9 9 10 10
23 23 22 21 19 18 18 16 14 13 12 11 11 11 11 10 10 10 8 6 8 7 6 5 4 3 3 5 6 6 6 5 5 4 4 4 4 8 9 9 11 11 13 14 15
25 24 24 22 22 20 19 19 17 15 13 12 12 11 11 12 10 8 7 6 7 7 5 5 4 4 5 6 7 7 7 6 4 6 5 6 5 7 9 11 13 13 12 12 10
23 22 22 23 22 20 19 17 16 15 15 14 14 14 12 11 9 8 7 7 7 6 5 5 4 4 3 2 4 5 7 7 4 5 4 4 5 6 8 8 8 7 7 6 6
22 22 20 18 19 18 17 16 16 16 15 15 14 13 10 11 9 8 7 6 6 5 5 4 2 2 1 2 2 4 5 6 3 1 2 1 2 2 3 3 3 3 3 3 2
20 19 20 20 17 17 17 16 16 14 14 13 13 10 10 9 7 6 5 5 4 3 2 1 1 2 4 3 5 7 6 4 2 1 2 1 1 1 1 2 2 2 2 1 1
18 19 18 17 17 17 15 14 13 11 12 11 9 8 8 6 3 2 2 1 0 2 2 2 2 3 4 4 6 4 1 2 2 2 2 1 1 1 1 2 3 3 3 3 4
Wind_Direction
283 278 273 269 264 258 257 255 251 247 244 243 242 249 237 238 241 242 242 241 237 235 237 239 240 243 242 247 252 251 260 259 261 258 263 268 275 272 270 266 263 258 257 258 260
287 283 276 271 266 258 255 252 249 248 241 240 240 242 235 236 238 240 239 235 234 234 236 236 240 242 246 250 255 254 256 257 264 265 269 273 272 274 272 269 268 266 261 261 260
289 284 278 273 266 261 254 250 247 246 243 236 236 239 229 233 238 239 233 232 230 233 235 236 238 243 247 250 254 255 256 260 267 269 275 273 275 272 271 270 266 266 267 265 262
292 286 280 274 265 257 253 249 247 243 240 234 230 229 224 233 233 237 228 227 228 232 234 235 239 244 248 250 256 259 262 266 269 273 275 274 275 273 270 271 270 270 267 267 263
297 291 284 271 261 256 249 249 248 238 235 231 224 221 220 226 231 230 220 222 225 229 232 235 240 243 246 252 257 261 266 270 272 274 274 273 272 273 272 273 273 270 268 265 264
303 300 289 272 258 251 248 245 248 234 231 224 219 221 219 222 225 219 215 219 224 227 231 236 240 244 249 255 259 264 268 272 273 275 275 274 275 273 275 274 274 274 270 266 263
302 306 300 279 255 246 247 243 249 231 226 216 220 209 212 216 214 212 216 219 223 225 230 236 240 247 252 258 265 269 273 277 275 276 276 279 277 271 276 276 274 273 272 267 264
301 306 300 286 257 248 247 242 242 239 220 210 205 206 211 214 210 212 212 215 220 223 229 236 241 248 257 261 271 274 274 278 276 280 278 278 273 279 282 277 275 277 273 270 266
294 306 299 290 261 251 245 235 248 217 202 197 197 202 201 201 199 204 209 213 215 224 230 239 247 253 261 265 274 277 274 278 282 282 281 279 281 279 281 280 279 277 273 271 267
282 303 306 282 263 246 228 207 198 163 172 182 187 188 195 195 197 201 205 208 217 221 233 243 250 254 262 266 266 273 279 280 279 284 289 286 283 285 283 279 278 275 273 271 267
272 304 326 298 241 204 183 164 164 158 167 176 183 190 184 177 183 194 197 201 210 223 233 245 251 253 256 258 265 270 279 284 286 288 290 286 288 290 288 280 276 276 272 272 270
134 42 8 54 148 141 148 151 162 153 152 150 162 161 170 180 184 187 192 205 211 219 228 246 248 252 253 258 267 278 288 290 292 295 295 296 298 299 299 285 278 276 280 279 279
83 69 40 105 125 112 130 129 140 141 137 127 139 155 167 168 179 186 192 199 207 215 220 226 240 247 258 269 282 282 281 288 288 299 296 300 302 312 308 297 285 280 287 288 288
74 66 92 108 108 114 122 131 135 136 131 130 137 138 160 163 160 173 185 196 203 207 216 237 246 256 267 275 276 288 282 282 289 297 300 310 306 313 321 307 302 291 296 298 294
74 91 91 95 111 109 120 127 141 136 127 136 140 143 151 164 159 168 173 175 181 190 205 235 252 262 276 273 261 279 289 289 293 295 299 293 294 303 325 317 326 308 305 300 300
81 83 87 92 97 104 118 121 130 126 116 128 137 134 132 138 148 155 164 166 181 189 222 246 247 252 262 272 256 281 297 294 287 292 302 293 290 306 321 321 318 310 322 319 302
76 78 84 88 89 94 109 118 116 116 130 127 132 132 131 135 138 148 155 158 160 181 242 232 233 246 226 275 273 278 310 328 339 322 305 321 305 301 325 324 322 356 21 43 56
72 74 77 79 73 87 104 110 109 112 114 132 129 127 130 133 131 136 136 153 190 177 185 159 28 171 185 256 321 296 327 339 318 344 337 351 338 350 344 349 32 59 75 78 66
70 71 70 64 64 84 101 102 112 115 118 121 121 117 123 125 133 136 150 151 169 180 137 134 141 107 131 42 3 355 310 331 316 311 343 356 355 17 4 27 39 51 59 52 75
63 69 65 58 77 98 96 101 105 110 118 118 123 128 129 130 127 126 134 131 117 132 130 108 97 109 67 67 18 36 9 346 343 349 351 1 10 3 6 21 36 43 56 68 82
67 73 67 69 88 95 98 103 101 106 106 108 111 116 119 123 123 122 118 122 121 114 116 98 91 69 79 86 66 53 36 28 24 38 28 18 40 31 40 58 65 69 82 82 89
72 75 66 77 92 92 94 98 101 103 103 104 106 110 116 120 116 112 120 125 123 112 109 111 102 82 101 56 41 49 39 40 68 40 52 53 43 38 57 69 79 87 85 92 93
71 73 71 80 87 88 90 93 93 93 94 99 104 105 111 114 106 113 113 102 113 110 100 100 93 62 48 55 54 49 28 38 68 54 56 68 54 67 75 82 96 99 98 101 97
71 73 75 80 85 88 88 85 90 90 91 95 98 101 103 100 107 102 98 93 105 103 96 96 90 106 107 76 44 12 16 26 65 69 73 78 70 81 88 98 107 105 102 99 96
67 74 79 81 79 83 88 85 87 86 87 84 93 90 97 98 96 92 87 80 95 77 86 93 84 80 311 299 341 332 342 359 35 11 82 128 106 117 136 139 142 138 126 125 127
72 75 77 78 81 81 78 79 82 85 86 86 92 85 89 97 96 93 87 84 79 48 76 59 336 333 308 288 306 304 304 318 327 28 57 104 308 108 168 153 161 182 190 228 277
69 73 78 72 75 81 79 80 77 86 88 89 91 94 86 91 101 118 124 99 340 7 354 344 341 344 306 337 334 342 157 102 77 108 108 124 34 129 175 211 226 235 244 261 274